EST,Max TemperatureF,Mean TemperatureF,Min TemperatureF,Max Dew PointF,MeanDew PointF,Min DewpointF,Max Humidity, Mean Humidity, Min Humidity, Max Sea Level PressureIn, Mean Sea Level PressureIn, Min Sea Level PressureIn, Max VisibilityMiles, Mean VisibilityMiles, Min VisibilityMiles, Max Wind SpeedMPH, Mean Wind SpeedMPH, Max Gust SpeedMPH,PrecipitationIn, CloudCover, Events, WindDirDegrees
2013-11-1,61,54,48,55,48,42,94,80,49,29.75,29.58,29.39,10,10,8,24,14,32,0.03,5,Rain,236
2013-11-2,54,50,45,43,40,36,83,73,49,30.08,29.84,29.74,10,10,10,16,9,22,0.00,7,,264
2013-11-3,53,46,39,41,37,32,89,77,53,30.41,30.26,30.08,10,10,9,7,5,,0.00,6,,327
2013-11-4,55,46,38,41,36,31,75,66,51,30.45,30.38,30.33,10,10,10,12,7,,0.00,2,Rain,124
2013-11-5,59,54,48,45,42,39,82,68,54,30.43,30.36,30.24,10,10,10,9,4,,0.00,4,,170
2013-11-6,62,54,45,59,52,38,100,85,51,30.22,30.02,29.97,10,10,6,23,11,31,0.39,7,Rain,220
2013-11-7,48,43,38,43,33,24,93,67,42,30.26,30.16,30.06,10,10,9,18,10,23,0.05,4,Rain,287
2013-11-8,48,38,29,32,30,27,90,70,44,30.38,30.30,30.22,10,10,9,10,6,,0.00,1,,253
2013-11-9,60,49,38,39,33,26,72,55,41,30.25,30.10,29.99,10,10,10,23,11,31,0.00,1,,203
2013-11-10,48,40,30,39,30,26,87,67,48,30.36,30.27,30.09,10,10,9,21,10,30,0.00,1,,270
2013-11-11,50,40,31,42,33,27,100,78,48,30.33,30.21,30.09,10,7,2,18,7,28,0.08,7,Rain-Snow,253
2013-11-12,33,28,24,32,24,18,100,80,61,30.63,30.46,30.27,10,8,2,17,11,24,0.01,4,Snow,335
2013-11-13,39,30,20,21,18,14,87,64,39,30.65,30.56,30.41,10,10,10,14,7,,0.00,0,,222
2013-11-14,52,40,28,20,18,15,68,45,24,30.39,30.27,30.17,10,10,10,17,12,,0.00,0,,197
2013-11-15,50,43,36,41,26,19,79,50,36,30.19,30.15,30.10,10,10,10,14,7,,0.00,4,,173
2013-11-16,59,52,45,54,48,40,89,83,77,30.15,30.06,29.91,10,10,10,21,8,25,0.00,8,,165
2013-11-17,64,58,48,61,56,39,96,86,48,29.89,29.71,29.50,10,8,1,29,16,43,1.03,6,Rain-Thunderstorm,186
2013-11-18,50,44,35,39,33,28,83,65,46,30.21,29.99,29.79,10,10,10,22,14,30,0.00,1,,264
2013-11-19,42,36,30,29,25,24,86,69,52,30.39,30.32,30.22,10,10,10,15,6,,0.00,3,,9
2013-11-20,48,38,28,31,27,22,80,65,49,30.38,30.32,30.26,10,10,10,12,7,,0.00,1,,98
2013-11-21,56,48,40,46,40,28,93,74,53,30.36,30.26,30.20,10,10,8,9,4,,0.13,6,Rain,138
2013-11-22,51,44,35,51,45,27,100,90,68,30.39,30.22,30.16,10,7,1,18,4,24,0.12,7,Rain,275
2013-11-23,35,28,20,27,19,9,91,66,52,30.57,30.41,30.33,10,10,6,25,11,30,0.00,4,Snow,304
2013-11-24,26,21,16,13,9,5,80,62,44,30.70,30.62,30.55,10,10,10,12,7,,0.00,2,,290
2013-11-25,36,26,17,29,19,10,92,66,35,30.55,30.30,30.18,10,8,2,21,9,25,0.03,6,Snow,200
2013-11-26,34,32,30,32,30,26,100,90,79,30.22,30.08,29.95,10,7,2,8,5,17,0.01,8,Snow,222
2013-11-27,32,28,23,28,18,11,87,70,48,30.30,30.06,29.89,10,10,10,21,12,30,0.00,6,Snow,303
2013-11-28,33,26,18,20,15,11,82,63,41,30.46,30.37,30.30,10,10,10,15,6,22,0.00,6,,210
2013-11-29,39,28,17,20,18,14,86,67,43,30.66,30.59,30.47,10,10,10,7,3,,0.00,0,,108
2013-11-30,48,36,25,26,23,19,79,64,40,30.54,30.36,30.19,10,10,10,9,3,,0.00,1,,161